sat.trackr.live / text

‹ back to catalog

STARLINK-11696 [DTC]

NORAD 64324 · 2025-124H

PAYLOAD ACTIVE UNKNOWN

§ Identity

Operator
Country
US
Launch date
2025-06-10
Launch site
AFETR
Launch vehicle
Mass (kg)
RCS (m²)

Purposes: comms

External: N2YO · Heavens-Above · Gunter

§ Orbital elements

Epoch: 2026-05-25T02:17:46.325184Z

Period
91.67 min
Inclination
43.0019°
Eccentricity
0.0002055
Mean motion
15.70899364 rev/d
Perigee alt
354.9 km
Apogee alt
357.7 km
Semi-major
6,734.5 km
B*
1.3634e-3
RAAN
288.4318°
Arg perigee
286.5133°
Mean anomaly
73.5509°
Rev number
5,485

§ Raw data

STARLINK-11696 [DTC]1 64324U 25124H   26145.09567506  .00178760  00000+0  13634-2 0  99962 64324  43.0019 288.4318 0002055 286.5133  73.5509 15.70899364 54855

JSON: /api/v1/satellites/64324 · /tle

For live sub-satellite position, see the globe view (requires WebGL).

§ Visibility from observer

Set your observer location to see the next 7 days of passes ≥ 10°. The values pass through the URL so the page stays shareable.

No JS? Fill the form by hand. The geolocation button needs JavaScript.